Regional Weather Roundup
Issued by NWS

Home | Current Version | Previous Version | Text Only | Print | Product List | Glossary On
Versions: 1 2 3 4 5 6 7 8 9 10 11 12 13 14 15 16 17 18 19 20 21 22 23 24 25 26 27 28 29 30 31 32 33 34 35 36 37 38 39 40 41 42 43 44 45 46 47 48 49 50
000
ASUS42 KKEY 240910
RWRKEY

FLORIDA REGIONAL WEATHER ROUNDUP FOR THE FLORIDA KEYS
NATIONAL WEATHER SERVICE KEY WEST FLORIDA
500 AM EDT TUE OCT 24 2017

...SOUTH FLORIDA AND THE KEYS...

CITY           SKY/WX    TMP DP  RH WIND       PRES   REMARKS
FORT MYERS     CLOUDY    72  72 100 S3        29.91F
SW REGIONAL AP CLOUDY    74  74 100 CALM      29.92S
NAPLES         CLOUDY    76  76 100 CALM      29.89F
MIAMI          CLOUDY    80  76  87 SE3       29.91F
WEST KENDALL   CLOUDY    77  74  90 S3        29.91F
HOMESTEAD      PTCLDY    77  76  95 S3        29.91F
MARATHON       CLEAR     81  74  79 SE7       29.90F
KEY WEST INTL  CLOUDY    80  74  81 SW9       29.91F

...INTERNATIONAL WEATHER...

CITY           SKY/WX    TMP DP  RH WIND       PRES   REMARKS
NASSAU BAHAMAS PTCLDY    75  73  94 CALM      29.95R
CANCUN MEXICO  PTCLDY    75  75 100 CALM      29.89
COZUMEL MEXICO MOCLDY    79  77  94 CALM      29.86F

ADJACENT COASTAL WATERS...

STATION/POSITION TIME  SKY/WX   TEMP    WIND        PRES    WAVE
                                AIR SEA DIR/SP/G            HT/PER
                 (UTC)          (F)     (DEG/KT/KT) (MB)    (FT/S)
PULASKI SHOAL LI 0900            80     130/  7/  8 1012.8S
SAND KEY         0850            77                 1013.4F
LONG KEY         NOT AVBL
MOLASSES REEF    0700            82 83  100/  8/ 11 1013.9F
FOWEY ROCKS      0900            81 81  160/ 17/ 18 1013.4F
Buoy 42097       0830               83                N/A     2/ 7

$$



USA.gov is the U.S. government's official web portal to all federal, state and local government web resources and services.